Terug naar catalogus

STARLINK-31775

ActiefCommunicatieVLEO
NORAD 60052·PAYLOAD·🇺🇸 United States

Gelanceerd Jun 8, 2024 vanaf Vandenberg Space Force Base

Loading…

Volgende Passages (komende 24 uur)

TLE

VersSource: CelesTrak SupGP

Epoch: Sep 14, 2026, 22:07 UTC

1 60052C 24112Q   26257.92201389  .00049139  00000+0  14516-2 0  2570
2 60052  53.1560 277.6025 0001023  80.1753 117.1778 15.34369874    17

Volg STARLINK-31775 in realtime met AllMySat

Download on the App Store